Orbital elements:
2012 BC14 Earth MOID = 0.0090 AU
Epoch 2012 Mar. 14.0 TT = JDT 2456000.5 MPC
M 72.44780 (2000.0) P Q
n 0.59210180 Peri. 281.33348 +0.88490788 -0.45319477
a 1.4045541 Node 105.69141 +0.45890548 +0.80887905
e 0.4589915 Incl. 6.41006 +0.07964806 +0.37460536
P 1.66 H 24.9 G 0.15 U 9